Weather Roundup
Issued by NWS Springfield, MO

Home | Current Version | Previous Version | Text Only | Print | Product List | Glossary On
Versions: 1 2 3 4 5 6 7 8 9 10 11 12 13 14 15 16 17 18 19 20 21 22 23 24 25 26 27 28 29 30 31 32 33 34 35 36 37 38 39 40 41 42 43 44 45 46 47 48 49 50
000
NZUS99 KSGF 280359
HRRSGF

HOURLY WEATHER
NATIONAL WEATHER SERVICE SPRINGFIELD MO
1100 PM CDT MON APR 27 2015

......SGF CWA......

CITY           SKY/WX    TMP DP  RH WIND       PRES   REMARKS
SPRINGFIELD    CLOUDY    54  36  50 NE7       30.04S
JOPLIN         CLOUDY    55  39  54 CALM      30.07R
WEST PLAINS    MOCLDY    52  34  50 NE7       30.04S
ROLLA          CLEAR     49  36  61 NE5       30.06S
OSAGE BEACH    PTCLDY    52  36  54 NE3       30.08R

......SURROUNDING SGF CWA......

CITY           SKY/WX    TMP DP  RH WIND       PRES   REMARKS
CHANUTE        CLOUDY    53  41  63 N6        30.09R
PARSONS        CLOUDY    55  41  59 N5        30.09R
COFFEYVILLE    CLOUDY    55  41  59 NE8       30.06R
EMPORIA        CLOUDY    51  37  58 CALM      30.12R
SILOAM SPRINGS CLOUDY    52  41  66 N8        30.04S
HARRISON AR    MOCLDY    55  36  48 SE6       30.03R
NEAR YELLVILLE PTCLDY    55  36  47 NE5       30.00S

......KANSAS AND MISSOURI......

CITY           SKY/WX    TMP DP  RH WIND       PRES   REMARKS
KANSAS CTY INT PTCLDY    54  36  50 NE6       30.12R
DOWNTOWN KC    PTCLDY    56  35  45 NE5       30.11R
COLUMBIA       CLEAR     51  39  63 NE8       30.10R
SEDALIA        CLEAR     53  36  52 NE5       30.11R
ST JOSEPH      PTCLDY    49  39  68 N9        30.13R
ST LOUIS       PTCLDY    56  37  49 NE6       30.09S
SPIRIT OF STL  CLEAR     46  41  82 CALM      30.08S
KIRKSVILLE     CLEAR     52  37  56 N3        30.13R
WICHITA        CLOUDY    57  36  45 NE12      30.11R
TOPEKA         PTCLDY    49  40  71 CALM      30.13R
OLATHE         PTCLDY    57  36  45 N5        30.11R

......TENNESSEE......

CITY           SKY/WX    TMP DP  RH WIND       PRES   REMARKS
MEMPHIS        PTCLDY    59  38  45 NE12      29.97R
NASHVILLE      CLEAR     53  38  56 N7        29.98S

......ARKANSAS.......

CITY           SKY/WX    TMP DP  RH WIND       PRES   REMARKS
FAYETTEVILLE   LGT RAIN  52  49  89 CALM      30.02R
FT SMITH       LGT RAIN  60  41  49 N5        29.99R
LITTLE ROCK    MOCLDY    60  40  47 NE10      29.96R

......OKLAHOMA.......

CITY           SKY/WX    TMP DP  RH WIND       PRES   REMARKS
TULSA          LGT RAIN  52  49  89 N6        30.06S
PONCA CITY     CLOUDY    50  49  96 NW3       30.08S
MCALESTER      LGT RAIN  53  50  89 NE6       30.01R
OKLAHOMA CITY  CLOUDY    50  46  86 N12       30.03R

......IOWA............

CITY           SKY/WX    TMP DP  RH WIND       PRES   REMARKS
DES MOINES     CLEAR     56  35  45 CALM      30.15R
QUAD CITIES    CLEAR     45  37  73 CALM      30.10S

......ILLINOIS........

CITY           SKY/WX    TMP DP  RH WIND       PRES   REMARKS
QUINCY         CLEAR     52  35  52 NE3       30.11R
CHICAGO        PTCLDY    42  33  70 NE6       30.12F



USA.gov is the U.S. government's official web portal to all federal, state and local government web resources and services.